Regional Weather Roundup
Issued by NWS Green Bay, WI

Home | Current Version | Previous Version | Text Only | Print | Product List | Glossary On
Versions: 1 2 3 4 5 6 7 8 9 10 11 12 13 14 15 16 17 18 19 20 21 22 23 24 25 26 27 28 29 30 31 32 33 34 35 36 37 38 39 40 41 42 43 44 45 46 47 48 49 50
000
ASUS43 KGRB 141800
RWRGRB

NORTH-CENTRAL AND NORTHEAST WISCONSIN REGIONAL WEATHER ROUNDUP
NATIONAL WEATHER SERVICE GREEN BAY WI
1200 PM CST SUN FEB 14 2016

WIZ005-009-010>012-018-019-141900-
NORTH CENTRAL WISCONSIN

CITY           SKY/WX    TMP DP  RH WIND       PRES   REMARKS
IRONWOOD       CLOUDY    16  -9  32 S15G21    30.03F WCI   1
MANITOWISH WTR NOT AVBL
ARBOR VITAE    NOT AVBL
EAGLE RIVER    NOT AVBL
LAND O LAKES   NOT AVBL
RHINELANDER    CLOUDY    14  -8  37 S13       30.08F WCI   0
PHILLIPS       NOT AVBL
ANTIGO         NOT AVBL
TOMAHAWK       NOT AVBL
MERRILL        NOT AVBL
$$

WIZ013-073-141900-
NORTHEAST WISCONSIN

CITY           SKY/WX    TMP DP  RH WIND       PRES   REMARKS
IRON MOUNTAIN  CLOUDY    18   2  49 S12       30.16F WCI   5
MARINETTE      CLOUDY    12   5  73 SE6       30.24F WCI   3
$$

WIZ017-030-035>037-045-141900-
CENTRAL WISCONSIN

CITY           SKY/WX    TMP DP  RH WIND       PRES   REMARKS
MEDFORD        NOT AVBL
WAUSAU         MOSUNNY   18  -2  41 SE17      30.11F WCI   3
MOSINEE        NOT AVBL
MARSHFIELD     CLOUDY    15  -3  44 SE13      30.09F WCI   1
WISC RAPIDS    CLOUDY    16  -2  45 S8        30.15F WCI   5
STEVENS POINT  NOT AVBL
WAUPACA        NOT AVBL
SHAWANO        NOT AVBL
CLINTONVILLE   NOT AVBL
WAUTOMA        NOT AVBL
$$

WIZ038-039-048-051-141900-
FOX VALLEY

CITY           SKY/WX    TMP DP  RH WIND       PRES   REMARKS
NWS GREEN BAY  FLURRIES  15   8  73 S6        30.23F WCI   6
APPLETON       MOSUNNY   18   5  57 SE13      30.18F WCI   4
OSHKOSH        SUNNY     20   9  62 S15G24    30.18F WCI   6
FOND DU LAC    CLOUDY    20  10  65 SE20G26   30.18F WCI   4
$$

WIZ022-050-052-141900-
EAST CENTRAL WISCONSIN

CITY           SKY/WX    TMP DP  RH WIND       PRES   REMARKS
EPHRAIM        NOT AVBL
STURGEON BAY   CLOUDY    16  10  79 CALM      30.25F
MANITOWOC      LGT SNOW  21  16  79 S10       30.25F VSB 1
SHEBOYGAN      LGT SNOW  20  13  74 SE14G22   30.22F WCI   7
$$

LMZ563-521-522-541>543-141900-
LAKESHORE

STATION/POSITION TIME  TEMP    WIND        PRES    VSBY  WAVE
                       AIR SEA DIR/SP/G                  HT/PER
                 (UTC) (F)     (DEG/KT/KT) (MB)    (MI)  (FT/S)
SHEBOYGAN LKSHOR 1700   22     170/ 30/ 33 1025.5F
KEWAUNEE LKSHORE 1700   16     250/  4/  5 1023.3F
ALGOMA MARINA    1711          190/ 22/ 28   N/A
SISTER BAY LKSHO 1719   22        CALM       N/A
CHAMBERS ISLAND  1700   13      40/  2/  3 1025.1F
MENOMINEE LKSHOR 1700   11      80/  4     1023.8F
$$



USA.gov is the U.S. government's official web portal to all federal, state and local government web resources and services.